SCP
1 1 1 1 1 1 1 1 1 0 0 0 0 0 0 0 0 0 0 0 1 1 2 2 1 1 1 1 1 1 1 1 1 1 1 1 1 1 1 1 0 0 0 0 0 0 0 0 0
1 1 1 1 1 1 1 1 1 0 0 0 0 0 0 0 0 0 0 0 1 1 2 2 1 1 1 1 1 1 1 1 1 1 1 1 1 1 1 1 1 0 0 0 0 0 0 0 0
1 1 1 1 0 0 1 1 1 0 0 0 0 0 0 0 0 0 0 0 1 1 1 1 1 1 1 1 1 1 1 1 1 1 1 1 1 1 1 1 1 1 0 0 0 0 0 0 0
1 1 1 0 0 0 1 1 1 0 0 0 0 0 0 0 0 0 0 0 1 1 1 1 1 1 1 1 1 1 1 1 1 1 1 1 0 1 1 1 1 1 1 0 0 0 0 0 0
1 1 1 0 0 0 0 0 0 0 0 0 0 0 0 0 0 0 0 0 1 1 1 1 1 1 1 1 1 1 1 1 1 1 1 0 0 0 1 1 1 1 1 0 0 0 0 0 0
1 1 1 0 0 0 0 0 0 0 0 0 0 0 0 0 0 0 0 0 1 1 1 1 1 1 1 1 1 1 1 0 0 1 1 1 0 0 1 1 1 1 1 0 0 0 0 0 0
1 1 1 0 0 0 0 0 0 0 0 0 0 0 0 0 1 1 1 0 1 1 1 1 1 1 1 1 1 1 1 0 0 1 1 1 1 0 1 1 1 1 1 1 1 1 0 0 0
0 1 1 0 0 0 0 0 0 0 0 0 0 0 1 1 1 1 1 0 0 1 1 1 1 0 0 1 1 1 1 1 1 1 1 1 0 0 0 1 1 1 1 0 1 1 0 0 0
0 1 1 0 0 0 0 0 0 0 0 0 0 1 1 1 1 1 1 0 0 1 1 1 0 0 0 0 0 1 1 1 1 1 1 0 0 0 0 0 0 0 0 0 0 0 0 0 0
0 0 1 0 0 0 0 0 0 0 0 0 1 1 1 1 1 1 1 0 0 1 1 1 1 0 0 0 0 0 1 1 1 1 1 0 0 0 0 0 0 0 0 0 0 0 0 0 0
0 0 0 0 0 0 0 0 0 0 0 0 1 1 1 1 1 1 1 1 0 0 0 1 0 0 0 0 0 0 0 1 1 1 1 0 0 0 0 0 0 0 0 0 0 0 0 0 0
0 0 0 0 0 0 0 0 0 0 0 0 1 1 1 1 1 1 1 1 0 0 1 1 1 0 0 0 0 0 0 0 1 1 1 0 0 0 0 0 0 0 0 0 0 0 0 0 0
0 0 0 0 0 0 0 0 0 0 0 0 1 1 1 1 1 1 1 0 0 1 1 1 1 1 0 0 0 0 0 0 1 1 1 0 0 0 0 0 0 0 0 0 0 0 0 0 0
0 0 0 0 0 0 0 0 0 0 0 0 0 1 1 1 1 1 1 0 0 1 1 1 1 1 1 0 0 0 0 0 0 0 0 0 0 0 0 0 0 0 0 0 0 0 0 0 0
0 0 0 0 0 0 0 0 0 0 0 0 0 1 1 1 1 1 1 1 0 1 1 1 1 1 1 0 0 0 0 0 0 0 0 0 0 0 0 0 0 0 0 0 0 0 0 0 0
0 0 0 0 0 0 0 0 0 0 0 0 0 1 1 1 1 1 1 1 1 1 1 1 1 1 1 1 1 0 0 0 0 0 0 0 0 0 0 0 0 0 0 0 0 0 0 0 0
0 0 0 0 0 0 0 0 0 0 0 0 0 1 1 1 1 1 1 1 1 1 1 1 1 1 1 1 1 1 0 0 0 0 0 0 0 0 0 0 0 0 0 0 0 0 0 0 0
0 0 0 0 0 0 0 0 0 0 0 0 0 1 1 1 1 1 1 1 1 1 1 1 2 2 1 1 1 1 1 1 1 0 0 0 0 0 0 0 0 0 0 0 0 0 0 0 0
0 0 0 0 0 0 0 0 0 0 0 0 1 1 1 1 1 1 1 1 1 1 1 2 2 2 2 1 1 1 1 1 1 1 0 0 0 0 0 0 0 0 0 0 0 0 0 0 0
0 0 0 0 0 0 0 0 0 0 0 1 1 1 1 1 1 2 1 1 1 1 1 2 2 2 2 2 2 2 2 2 1 1 1 0 0 0 0 0 0 0 0 0 0 0 0 0 0
0 0 0 0 0 0 0 0 0 0 0 1 1 1 1 1 1 2 1 1 1 1 2 2 2 3 2 2 2 2 2 2 2 1 1 0 0 0 0 0 0 0 0 0 0 0 0 0 0
0 0 0 0 0 0 0 0 0 0 0 1 1 1 1 1 1 1 1 1 1 2 2 2 3 3 3 3 3 3 2 2 1 1 1 1 0 0 0 0 0 0 0 0 0 0 0 0 0
0 0 0 0 0 0 0 0 0 0 0 0 1 1 1 1 1 1 1 2 2 2 2 2 3 3 3 3 3 2 2 1 1 1 1 1 0 0 0 0 0 0 0 0 0 0 0 0 0
0 0 0 0 0 0 0 0 0 0 0 0 0 1 1 1 1 1 1 2 2 2 3 3 3 4 4 4 3 2 1 1 1 1 1 1 1 1 1 0 0 0 0 0 0 0 0 0 0
0 0 0 0 0 0 0 0 0 0 0 0 0 1 1 1 1 1 1 2 2 2 3 4 4 4 4 4 3 2 1 1 1 1 1 1 1 1 1 0 0 0 0 0 0 0 0 0 0
0 0 0 0 0 0 0 0 0 0 0 0 0 1 1 1 1 1 2 2 2 3 4 5 4 4 4 3 2 2 1 1 1 1 1 1 1 1 0 0 0 0 0 0 0 0 0 0 0
0 0 0 0 0 0 0 0 0 0 0 0 0 1 1 1 2 2 2 2 3 4 5 5 4 3 3 3 2 2 1 2 2 1 1 1 1 0 0 0 0 0 0 0 0 0 0 0 0
0 0 0 0 0 0 0 0 0 0 0 0 0 1 1 1 2 3 3 3 4 4 4 4 3 2 2 2 2 2 2 2 1 1 1 0 0 0 0 0 0 0 0 0 0 0 0 0 0
0 0 0 0 0 0 0 0 0 0 0 0 0 0 1 1 2 2 3 3 3 3 3 2 2 2 2 2 2 1 1 1 1 1 0 0 0 0 0 0 0 0 0 0 0 0 0 0 0
0 0 0 0 0 0 0 0 0 0 0 0 0 0 0 1 1 2 2 3 3 2 2 2 2 2 2 2 1 1 1 1 1 1 0 0 0 0 0 0 0 0 0 0 0 0 0 0 0
Wind_Speed
10 10 7 3 2 1 5 6 8 7 8 9 9 9 12 12 8 7 2 3 8 10 11 10 10 10 9 9 9 9 9 10 9 10 9 9 9 9 8 8 8 7 7 7 7 8 7 7 7
10 7 4 3 2 2 5 6 9 9 7 5 8 10 12 11 10 7 3 4 8 10 10 10 10 10 9 9 9 9 10 10 10 9 9 9 9 8 8 8 7 8 8 8 8 8 7 7 6
11 7 4 2 2 5 6 7 7 7 6 5 7 10 9 7 8 6 4 5 9 11 11 10 10 10 9 9 9 9 9 9 9 9 9 9 9 8 8 8 7 7 7 8 7 7 7 7 6
5 4 4 1 5 7 6 6 5 6 5 5 7 9 9 9 7 7 6 7 9 11 11 10 10 10 9 9 9 9 9 9 8 8 8 8 8 8 8 8 7 7 7 7 7 7 7 7 7
4 3 2 2 5 6 6 6 5 6 6 8 10 10 9 9 9 8 7 7 9 10 10 10 11 10 10 9 9 8 9 9 8 8 8 7 8 8 8 7 7 7 7 7 8 8 8 8 7
3 3 1 3 5 5 6 5 6 7 6 6 8 10 7 8 7 7 7 6 7 8 10 10 10 10 10 9 9 8 8 8 8 8 8 8 8 8 8 8 8 8 8 8 8 8 8 8 7
4 3 1 3 4 4 5 6 6 6 7 7 6 8 8 7 6 6 7 6 6 7 8 8 9 9 9 9 9 8 8 7 7 7 7 7 8 8 8 8 8 8 8 8 8 8 9 7 6
4 4 1 3 3 4 5 5 5 6 5 4 5 6 8 8 7 7 6 6 5 6 6 6 7 8 8 7 9 8 8 7 6 6 6 6 6 7 7 8 8 8 8 8 8 8 8 7 5
5 2 2 2 2 3 4 4 5 4 5 6 9 9 11 11 9 7 5 5 4 4 4 6 6 6 6 7 8 7 7 7 6 5 6 5 3 4 5 8 8 8 8 7 7 7 7 5 2
2 1 2 2 2 4 3 3 3 4 4 6 9 10 10 9 8 7 6 6 5 4 4 5 6 5 5 5 6 4 4 4 4 3 4 3 3 4 6 6 7 8 7 6 5 5 4 2 1
1 0 1 2 3 2 2 3 2 2 3 4 7 10 9 8 7 6 5 6 5 4 4 5 5 5 5 3 3 2 2 2 2 2 4 3 3 3 3 2 3 3 4 2 3 2 1 1 2
1 0 2 2 2 1 1 1 2 3 4 5 6 9 9 7 7 6 6 6 5 4 5 5 5 4 5 4 3 3 2 2 2 2 4 3 2 2 2 2 2 2 1 1 1 0 1 3 4
3 2 1 0 1 1 1 1 2 3 5 5 6 7 8 7 6 6 6 6 5 5 4 4 4 4 4 3 1 3 2 2 3 2 2 4 2 2 2 2 2 2 2 2 2 3 4 5 5
1 1 3 2 2 2 1 2 3 4 5 5 6 6 7 6 6 7 6 6 6 5 5 4 3 4 5 3 2 3 3 2 3 2 2 3 3 2 3 2 3 2 2 2 2 4 4 4 4
4 5 4 3 4 2 1 3 3 4 5 5 6 6 6 6 6 6 6 6 6 7 7 5 3 4 5 4 2 3 3 3 3 2 2 3 3 3 3 3 3 2 2 3 3 4 3 4 4
7 7 6 5 5 4 4 2 4 4 5 5 5 6 6 6 6 6 6 5 5 6 7 6 3 4 5 4 3 2 3 3 2 2 1 2 4 4 3 3 2 2 2 3 3 3 3 4 3
8 8 6 5 5 4 5 2 3 4 5 5 5 5 7 7 7 6 7 6 5 6 6 7 4 4 5 4 3 3 3 3 2 2 2 3 3 4 4 2 2 3 3 2 3 4 3 3 3
6 6 5 4 4 4 4 3 2 3 4 4 4 4 5 7 6 6 6 6 5 5 5 6 5 5 5 3 3 3 3 2 2 2 2 3 2 3 3 2 3 3 3 3 3 3 2 2 2
7 7 5 3 2 4 5 4 4 3 4 4 4 4 5 6 7 7 6 6 6 5 4 5 5 5 5 3 2 3 2 2 2 2 3 2 2 3 3 3 3 3 3 3 3 3 2 1 2
9 8 7 3 2 5 5 5 4 5 5 4 4 4 4 4 6 7 7 6 6 6 6 5 5 5 5 3 3 3 3 2 2 2 2 2 2 2 3 3 3 3 3 3 3 2 1 1 1
10 7 6 6 5 8 6 5 6 6 6 5 4 4 5 5 6 7 7 6 6 6 6 5 5 6 6 5 2 2 3 1 2 2 2 2 2 2 2 3 3 3 3 3 2 2 2 1 1
7 4 6 7 7 6 6 4 5 5 5 6 5 4 4 4 5 6 8 7 7 6 5 5 6 6 5 6 4 4 3 2 2 2 2 2 2 1 1 2 3 2 2 3 2 2 2 1 0
5 4 7 9 8 9 9 6 4 5 5 5 5 5 4 5 5 6 7 8 7 6 5 5 5 6 5 6 5 4 3 2 2 2 2 2 2 2 1 2 2 2 2 3 3 2 2 1 1
5 7 10 9 7 9 10 7 3 4 5 5 5 5 4 5 6 5 6 7 6 6 5 4 5 5 5 6 6 5 4 3 3 3 3 2 2 1 2 2 2 2 2 3 2 2 2 1 2
7 6 4 5 7 7 5 5 3 3 3 3 3 4 4 4 5 5 6 7 7 7 6 5 6 6 5 5 5 5 5 5 4 3 3 3 2 2 2 3 2 2 2 3 2 2 1 2 1
8 9 6 4 5 3 4 4 3 5 4 3 4 3 4 4 4 5 6 6 7 7 7 7 7 6 6 5 4 4 4 3 3 3 3 3 2 2 3 3 3 3 3 3 2 1 1 1 2
8 7 7 9 9 7 5 4 4 5 4 4 4 4 4 3 4 4 5 6 7 7 6 7 7 7 7 6 5 4 5 5 4 4 3 3 2 3 4 4 3 3 3 3 3 2 1 2 2
8 7 5 5 5 6 5 5 4 6 5 5 4 3 3 3 4 4 5 5 6 7 6 7 7 6 6 6 5 4 4 4 4 3 3 3 3 3 4 4 4 4 4 3 3 2 1 3 2
6 7 6 5 5 5 4 1 3 4 4 4 4 3 3 3 4 3 4 5 6 6 6 6 6 6 5 6 5 5 4 4 4 3 3 3 3 4 4 4 4 4 4 5 4 2 2 2 2
7 7 6 5 6 6 5 1 3 4 3 3 3 3 3 3 4 4 5 5 6 6 6 6 6 6 5 5 5 5 5 5 5 4 4 4 3 3 4 4 3 3 4 4 4 3 2 2 2
Wind_Direction
278 259 256 257 262 212 60 58 61 48 49 44 41 55 61 48 46 81 109 66 89 96 101 95 87 87 87 90 88 85 84 87 87 87 88 86 82 78 77 77 76 76 76 74 71 71 68 64 65
286 288 278 242 259 86 72 67 65 55 50 57 57 58 69 63 71 89 95 71 86 93 94 93 92 90 88 88 91 88 88 89 89 88 90 90 86 80 75 77 78 77 75 74 71 70 71 70 70
270 272 264 255 23 59 80 74 78 74 47 49 70 60 53 62 75 93 110 97 91 93 93 97 96 93 91 91 93 93 91 90 92 91 91 90 88 86 79 75 78 79 78 77 73 70 72 72 74
276 261 245 285 68 67 79 87 83 85 68 57 75 75 68 57 83 104 112 101 97 97 98 101 100 98 96 95 97 95 95 92 92 93 92 92 89 86 83 78 79 82 79 78 77 75 76 79 75
249 260 250 104 81 76 71 75 76 66 55 56 75 88 86 82 89 98 92 87 94 100 106 110 108 105 102 99 98 96 97 95 94 95 95 96 93 90 87 82 80 80 79 80 81 80 80 79 73
270 253 249 105 94 85 79 69 62 67 67 66 91 99 95 103 99 98 92 88 96 106 114 118 118 115 111 107 103 102 101 101 100 100 98 98 99 98 92 85 81 79 80 84 84 86 85 80 73
279 283 267 114 102 90 74 58 57 63 57 39 55 96 111 109 106 107 105 102 101 109 120 132 136 127 120 117 115 114 112 111 112 111 108 106 108 104 98 91 87 83 85 91 90 94 92 85 73
283 293 335 83 100 92 83 73 65 58 67 50 48 86 118 125 128 119 117 111 111 117 120 126 131 138 138 132 127 128 128 128 132 135 135 131 127 117 109 100 93 92 92 95 99 103 101 93 81
270 283 19 52 100 103 102 100 91 82 77 70 68 81 115 129 135 129 125 113 106 107 118 119 119 124 133 137 136 144 145 150 155 161 167 164 158 132 115 103 106 102 102 105 112 115 115 113 103
244 306 50 32 52 103 112 87 100 128 102 95 101 102 118 136 143 146 145 136 126 120 116 119 119 124 128 124 139 160 157 163 178 164 163 176 125 106 105 117 118 119 119 122 129 140 139 148 160
235 46 30 52 44 69 116 107 73 93 97 98 123 133 136 147 147 141 131 122 119 114 109 111 116 123 124 123 134 135 136 154 153 127 129 110 99 115 121 135 137 138 146 147 138 162 185 132 77
219 4 351 22 44 352 36 90 85 75 85 99 114 135 147 157 148 137 127 124 128 124 117 112 115 118 115 110 123 129 125 125 110 95 112 106 101 112 122 129 127 128 120 106 119 118 74 76 70
219 222 240 226 240 267 288 168 103 105 110 120 134 145 151 156 146 135 135 133 125 119 115 109 122 116 107 108 140 119 115 107 116 106 106 104 102 109 100 99 90 87 82 78 64 67 65 61 55
246 240 245 224 229 229 239 253 178 135 141 155 156 159 159 160 151 143 151 148 144 140 132 125 127 117 116 123 114 103 100 102 98 94 100 113 112 110 99 82 75 71 75 72 82 81 77 69 64
232 239 236 217 230 215 242 249 190 152 170 173 167 164 160 160 154 155 157 158 154 147 136 130 132 123 120 114 104 106 112 106 104 102 119 121 112 102 100 93 82 69 78 77 70 73 70 80 77
232 232 231 209 216 214 226 237 146 164 183 177 176 167 161 161 170 164 158 149 143 133 129 129 143 130 113 108 96 93 106 105 104 97 80 89 104 103 93 91 97 95 85 76 81 77 71 72 74
230 229 225 206 199 217 227 232 155 178 190 182 184 173 166 168 178 166 156 148 137 131 134 136 140 126 114 115 120 96 95 97 92 84 65 66 77 91 94 88 95 88 77 69 78 74 81 89 89
246 249 234 226 183 212 231 218 193 196 196 188 183 177 170 171 173 161 151 144 136 129 132 129 130 131 124 119 110 97 89 89 88 90 76 66 81 95 100 102 86 84 87 74 76 82 75 89 86
270 272 265 256 220 237 239 226 208 208 212 207 190 185 179 172 162 158 152 143 140 142 142 139 145 141 130 126 122 116 119 111 101 101 94 74 75 103 102 94 87 80 92 97 95 90 87 82 96
262 262 269 266 255 254 245 240 211 207 211 214 205 191 180 169 157 151 153 154 154 157 163 154 147 138 128 130 143 141 130 123 114 98 98 92 64 73 109 119 116 106 95 90 96 91 73 29 83
250 259 274 280 280 268 250 243 216 200 203 200 210 203 188 180 168 160 163 160 159 161 165 161 154 147 142 138 121 110 101 86 99 118 108 85 72 37 78 111 113 111 117 120 121 114 104 40 356
260 269 270 268 266 263 243 255 210 190 199 195 201 208 193 179 170 167 163 159 162 163 167 163 162 150 142 138 125 124 127 131 146 148 143 134 121 104 83 93 108 117 111 124 138 124 114 90 15
277 293 276 268 267 268 252 248 217 175 200 194 186 194 187 171 170 167 160 160 160 160 165 163 152 141 137 131 131 139 134 140 136 120 115 114 118 112 113 109 110 110 110 116 100 87 71 68 63
270 269 262 251 252 253 240 238 219 199 190 186 177 179 180 167 161 159 150 149 150 150 153 149 139 136 139 145 149 151 148 149 141 133 135 133 127 142 142 133 130 123 119 115 113 111 99 64 44
244 251 252 225 223 233 213 220 193 159 139 137 142 153 154 148 152 151 143 148 152 154 158 155 147 145 150 157 164 164 167 160 150 147 148 144 145 151 159 139 136 128 127 123 110 107 118 109 85
243 243 251 263 254 256 223 210 138 116 111 109 111 117 126 136 143 146 148 152 154 155 159 161 162 158 162 167 174 168 161 148 145 155 153 150 151 148 146 134 131 133 141 135 122 110 107 117 112
259 250 262 278 284 269 231 178 162 140 135 127 109 102 106 119 126 135 144 154 155 155 158 159 164 165 166 169 172 170 162 154 155 154 148 150 155 150 146 146 150 154 144 136 132 125 124 92 85
256 273 272 259 274 267 243 220 195 177 164 137 123 113 110 119 121 138 141 143 146 152 159 159 168 172 165 164 171 159 154 145 140 143 152 156 153 145 145 159 165 162 155 141 127 114 111 113 106
245 241 249 269 262 271 267 241 89 109 109 126 133 135 131 134 131 126 136 138 140 147 156 163 167 164 161 163 160 153 148 152 151 152 172 173 173 165 159 169 167 162 154 145 133 130 114 117 133
258 261 260 262 266 267 273 251 77 89 80 91 112 120 120 129 128 127 128 138 142 151 161 161 163 161 161 161 160 162 159 163 168 170 180 183 176 167 160 154 150 145 146 141 139 140 134 130 118